Location: Houhaj�rvi
(61.2833°N, 23.0000°E)
Time: 08:59:54
(UTC+00:00)

Resurs 1-3 - Pass Details

Date: 27 February 2020
Orbit: 630 x 632 km, 97.9° (Epoch: 03 April)

Event Time Altitude Azimuth Distance (km) Brightness Sun altitude
Exits shadow 18:44:36 23° 187° (S) 1,354 5.1 -21.8°
Maximum altitude 18:47:11 56° 258° (WSW) 761 4.2 -22.1°
Drops below altitude 10° 18:51:32 10° 337° (NNW) 2,031 6.8 -22.6°
Sets 18:53:47 0° 342° (NNW) 2,943 7.7 -22.8°
